weather.gov     
National Weather Service

Terminal Aerodrome Forecast
NWS Homepage
This page is being discontinued on March 12, 2014.
The same data is available at this site. Please update your bookmarks.
Thank you, and we apologize for the inconvenience.
Please send an email to SR-SRH.Webmaster@noaa.gov with any concerns.


Current Version
Previous Version:    01  02  03  04  05  06  07  08  09  10  11  12  13  14  
[Printable]
258
FTUS41 KBTV 290500
TAFMPV
TAF
KMPV 290520Z 2906/3006 30010G17KT P6SM -RA SCT006 OVC020
     FM290800 30006KT 4SM BR SCT006 OVC011
      TEMPO 2909/2912 1SM BR OVC006
     FM291300 30006KT P6SM BKN025
     FM291500 29007KT P6SM SCT030=


U.S. Dept. of Commerce
NOAA National Weather Service
1325 East West Highway
Silver Spring, MD 20910
E-mail: w-nws.webmaster@noaa.gov
Page last modified: May 16, 2007
NATIONAL WEATHER SERVICE: for Safety, for Work, for Fun - FOR LIFE